Weather History for Gustavus, AK

Change the Weather History Date:

Thursday, August 22, 2013

  Actual Average Record
Temperature  
Mean Temperature 56 °F -  
Max Temperature 60 °F 61 °F 77 °F (2004)
Min Temperature 51 °F 45 °F 31 °F (1987)
Degree Days  
Heating Degree Days 10    
Growing Degree Days 6 (Base 50)    
Moisture  
Dew Point 52 °F    
Average Humidity 90    
Maximum Humidity 100    
Minimum Humidity 63    
Precipitation  
Precipitation 0.00 in - - ()
Sea Level Pressure  
Sea Level Pressure 29.87 in    
Wind  
Wind Speed 2 mph (SSE)    
Max Wind Speed 9 mph    
Max Gust Speed -    
Visibility 10 miles    
Events      
Averages and records for this station are not official NWS values.
T = Trace of Precipitation, MM = Missing Value Source: NWS Daily Summary

Daily Weather History Graph

Daily Weather History Graph

Search for Another Location

Airport:

Trip Planner

Search our weather history database for the weather conditions in past years. The results will help you decide how hot, cold, wet, or windy it might be!

Date:

Astronomy

Aug. 22, 2013 Rise Set
Actual Time 5:40 AM AKDT 8:28 PM AKDT
Civil Twilight 4:55 AM AKDT 9:13 PM AKDT
Nautical Twilight 3:54 AM AKDT 10:13 PM AKDT
Astronomical Twilight 2:26 AM AKDT 11:38 PM AKDT
Moon 8:30 PM AKDT (8/22) 8:18 AM AKDT (8/22)
Length of Visible Light 16h 18m
Length of Day
14h 48m
Waning Gibbous, 96% of the Moon is Illuminated
Aug 22
Waning Gibbous
Aug 28
Last Quarter
Sep 5
New
Sep 12
First Quarter
Sep 19
Full

Hourly Weather History & Observations

Time (AKDT) Temp. Dew Point Humidity Pressure Visibility Wind Dir Wind Speed Gust Speed Precip Events Conditions
12:16 AM 55.4 °F 53.6 °F 94% 29.87 in 8.0 mi Calm Calm - N/A   Overcast
12:36 AM 55.4 °F 53.6 °F 94% 29.87 in 9.0 mi West 3.5 mph - N/A   Overcast
12:56 AM 53.6 °F 51.8 °F 94% 29.86 in 9.0 mi Calm Calm - N/A   Mostly Cloudy
1:16 AM 53.6 °F 51.8 °F 94% 29.87 in 3.0 mi Calm Calm - N/A   Overcast
1:36 AM 53.6 °F 51.8 °F 94% 29.86 in 7.0 mi Calm Calm - N/A   Overcast
1:56 AM 53.6 °F 51.8 °F 94% 29.87 in 7.0 mi Calm Calm - N/A   Overcast
2:16 AM 53.6 °F 53.6 °F 100% 29.86 in 9.0 mi Calm Calm - N/A   Overcast
2:36 AM 53.6 °F 51.8 °F 94% 29.86 in 8.0 mi Calm Calm - N/A   Overcast
2:56 AM 53.6 °F 51.8 °F 94% 29.86 in 10.0 mi Calm Calm - N/A   Overcast
3:16 AM 53.6 °F 51.8 °F 94% 29.86 in 8.0 mi Calm Calm - N/A   Overcast
3:36 AM 53.6 °F 51.8 °F 94% 29.86 in 10.0 mi WSW 3.5 mph - N/A   Overcast
3:56 AM 53.6 °F 51.8 °F 94% 29.86 in 10.0 mi Calm Calm - N/A   Overcast
4:56 AM 53.6 °F 51.8 °F 94% 29.86 in 8.0 mi Calm Calm - N/A   Mostly Cloudy
5:16 AM 53.6 °F 51.8 °F 94% 29.85 in 8.0 mi Calm Calm - N/A   Overcast
5:36 AM 51.8 °F 51.8 °F 100% 29.85 in 7.0 mi Calm Calm - N/A   Overcast
5:56 AM 53.6 °F 51.8 °F 94% 29.86 in 8.0 mi Calm Calm - N/A   Overcast
6:16 AM 53.6 °F 51.8 °F 94% 29.86 in 9.0 mi Calm Calm - N/A   Overcast
6:36 AM 53.6 °F 53.6 °F 100% 29.86 in 10.0 mi East 4.6 mph - N/A   Overcast
6:56 AM 55.4 °F 53.6 °F 94% 29.86 in 10.0 mi ESE 5.8 mph - N/A   Mostly Cloudy
7:36 AM 55.4 °F 53.6 °F 94% 29.86 in 10.0 mi ESE 6.9 mph - N/A   Mostly Cloudy
7:56 AM 55.4 °F 53.6 °F 94% 29.86 in 10.0 mi ESE 6.9 mph - N/A   Scattered Clouds
8:16 AM 55.4 °F 53.6 °F 94% 29.86 in 10.0 mi ESE 8.1 mph - N/A   Mostly Cloudy
8:36 AM 55.4 °F 53.6 °F 94% 29.87 in 10.0 mi ESE 5.8 mph - N/A   Overcast
8:56 AM 57.2 °F 53.6 °F 88% 29.86 in 10.0 mi ESE 9.2 mph - N/A   Overcast
9:16 AM 57.2 °F 53.6 °F 88% 29.87 in 10.0 mi ESE 6.9 mph - N/A   Overcast
9:36 AM 57.2 °F 53.6 °F 88% 29.87 in 10.0 mi East 5.8 mph - N/A   Overcast
9:56 AM 57.2 °F 53.6 °F 88% 29.87 in 10.0 mi ESE 5.8 mph - N/A   Overcast
10:16 AM 59.0 °F 53.6 °F 82% 29.87 in 10.0 mi ESE 8.1 mph - N/A   Overcast
10:36 AM - - N/A% 29.87 in 10.0 mi ESE 6.9 mph - N/A   Overcast
10:56 AM - - N/A% 29.88 in 10.0 mi SE 6.9 mph - N/A   Overcast
11:16 AM - - N/A% 29.88 in 10.0 mi South 8.1 mph - N/A   Overcast
11:36 AM - - N/A% 29.88 in 10.0 mi South 5.8 mph - N/A   Overcast
11:56 AM - - N/A% 29.88 in 10.0 mi SE 5.8 mph - N/A   Overcast
12:16 PM - - N/A% 29.88 in 10.0 mi SSE 6.9 mph - N/A   Overcast
12:36 PM - - N/A% 29.88 in 10.0 mi ESE 5.8 mph - N/A   Overcast
12:56 PM - - N/A% 29.88 in 10.0 mi SE 3.5 mph - N/A   Overcast
1:16 PM - - N/A% 29.88 in 10.0 mi WSW 6.9 mph - N/A   Overcast
1:36 PM - - N/A% 29.88 in 10.0 mi SW 6.9 mph - N/A   Overcast
1:56 PM - - N/A% 29.88 in 10.0 mi SW 5.8 mph - N/A   Overcast
2:16 PM - - N/A% 29.88 in 10.0 mi South 4.6 mph - N/A   Overcast
2:36 PM - - N/A% 29.88 in 10.0 mi Calm Calm - N/A   Overcast
2:56 PM - - N/A% 29.88 in 10.0 mi SW 4.6 mph - N/A   Overcast
3:16 PM - - N/A% 29.88 in 10.0 mi SSW 4.6 mph - N/A   Overcast
3:36 PM - - N/A% 29.88 in 10.0 mi South 4.6 mph - N/A   Overcast
3:56 PM - - N/A% 29.88 in 10.0 mi SW 5.8 mph - N/A   Overcast
4:16 PM 60.8 °F 48.2 °F 63% 29.89 in 10.0 mi Calm Calm - N/A   Overcast
4:36 PM 60.8 °F 48.2 °F 63% 29.88 in 10.0 mi SW 3.5 mph - N/A   Overcast
4:56 PM 60.8 °F 48.2 °F 63% 29.88 in 10.0 mi SSW 5.8 mph - N/A   Overcast
5:16 PM - - N/A% 29.88 in 10.0 mi Calm Calm - N/A   Overcast
5:36 PM - - N/A% 29.87 in 10.0 mi Calm Calm - N/A   Overcast
5:56 PM - - N/A% 29.87 in 10.0 mi WSW 3.5 mph - N/A   Mostly Cloudy
6:16 PM - - N/A% 29.87 in 10.0 mi Calm Calm - N/A   Overcast
6:36 PM - - N/A% 29.87 in 10.0 mi Calm Calm - N/A   Overcast
6:56 PM - - N/A% 29.87 in 10.0 mi Calm Calm - N/A   Overcast
7:16 PM - - N/A% 29.87 in 10.0 mi SW 4.6 mph - N/A   Overcast
7:36 PM - - N/A% 29.87 in 10.0 mi Calm Calm - N/A   Overcast
7:56 PM - - N/A% 29.87 in 10.0 mi Calm Calm - N/A   Overcast
8:16 PM - - N/A% 29.87 in 10.0 mi Calm Calm - N/A   Overcast
8:36 PM - - N/A% 29.87 in 10.0 mi Calm Calm - N/A   Overcast
8:56 PM - - N/A% 29.87 in 10.0 mi Calm Calm - N/A   Mostly Cloudy
9:16 PM - - N/A% 29.87 in 10.0 mi Calm Calm - N/A   Overcast
9:36 PM 57.2 °F 51.8 °F 82% 29.87 in 10.0 mi Calm Calm - N/A   Overcast
9:56 PM - - N/A% 29.87 in 10.0 mi Calm Calm - N/A   Overcast
10:16 PM - - N/A% 29.86 in 10.0 mi Calm Calm - N/A   Overcast
10:36 PM - - N/A% 29.86 in 10.0 mi Calm Calm - N/A   Overcast
10:56 PM - - N/A% 29.86 in 10.0 mi Calm Calm - N/A   Overcast
11:16 PM - - N/A% 29.86 in 10.0 mi Calm Calm - N/A   Overcast
11:36 PM - - N/A% 29.85 in 10.0 mi Calm Calm - N/A   Overcast
11:56 PM - - N/A% 29.86 in 10.0 mi South 3.5 mph - N/A   Overcast